Location: ??????
(55.7522°N, 37.6156°E)
Time: 17:15:54
(UTC+00:00)

Spot 4 - Pass Details

Date: 14 June 2025
Orbit: 698 x 716 km, 98.3° (Epoch: 13 July)

Event Time Altitude Azimuth Distance (km) Brightness Sun altitude
Exits shadow 20:51:34 14° 180° (S) 1,937 5.4 -10.5°
Maximum altitude 20:55:40 59° 258° (WSW) 830 4.2 -10.6°
Drops below altitude 10° 21:00:28 10° 338° (NNW) 2,212 7.8 -10.7°
Sets 21:02:47 0° 343° (NNW) 3,138 9.1 -10.7°
